Location: Gisborne
(38.6530°S, 178.0040°E)
Time: 10:28:52
(UTC+13:00)

SPOT 1/Viking Rocket - Pass Details

Date: 24 January 2019
Orbit: 777 x 795 km, 98.5° (Epoch: 15 February)

Event Time Altitude Azimuth Distance (km) Brightness Sun altitude
Rises 23:02:26 0° 161° (SSE) 3,333 7.3 -23.8°
Reaches altitude 10° 23:04:54 10° 154° (SSE) 2,396 6.4 -24.0°
Enters shadow 23:09:30 45° 97° (E) 1,087 4.0 -24.5°
